Weather History for KITR - April, 2014

Change the Weather History Date:

Saturday, April 12, 2014

  Actual Average Record
Temperature  
Mean Temperature 64 °F 47 °F  
Max Temperature 80 °F 61 °F 85 °F (1998)
Min Temperature 48 °F 32 °F 5 °F (1997)
Degree Days  
Heating Degree Days 2    
Growing Degree Days 14 (Base 50)    
Moisture  
Dew Point 30 °F    
Average Humidity 31    
Maximum Humidity 49    
Minimum Humidity 14    
Precipitation  
Precipitation 0.00 in 0.04 in 1.66 in (1960)
Month to date precipitation 0.11 0.38  
Year to date precipitation 1.02 2.07  
Sea Level Pressure  
Sea Level Pressure 29.56 in    
Wind  
Wind Speed 12 mph (NNW)    
Max Wind Speed 21 mph    
Max Gust Speed 24 mph    
Visibility 10 miles    
Events      
T = Trace of Precipitation, MM = Missing Value Source: NWS Daily Summary

Daily Weather History Graph

Daily Weather History Graph

Search for Another Location

Airport or City:

Trip Planner

Search our weather history database for the weather conditions in past years. The results will help you decide how hot, cold, wet, or windy it might be!

Date:

Astronomy

Apr. 12, 2014 Rise Set
Actual Time 6:16 AM MDT 7:23 PM MDT
Civil Twilight 5:49 AM MDT 7:51 PM MDT
Nautical Twilight 5:16 AM MDT 8:24 PM MDT
Astronomical Twilight 4:42 AM MDT 8:58 PM MDT
Moon 5:05 PM MDT (4/12) 4:43 AM MDT (4/12)
Length of Visible Light 14h 02m
Length of Day
13h 07m
Waxing Gibbous, 93% of the Moon is Illuminated
Apr 12
Waxing Gibbous
Apr 15
Full
Apr 22
Last Quarter
Apr 29
New
May 6
First Quarter

Hourly Weather History & Observations

Time (MDT) Temp. Dew Point Humidity Pressure Visibility Wind Dir Wind Speed Gust Speed Precip Events Conditions
12:53 AM 53.1 °F 28.9 °F 40% 29.62 in 10.0 mi SSW 13.8 mph - N/A   Clear
1:53 AM 48.9 °F 28.9 °F 46% 29.61 in 10.0 mi WSW 8.1 mph - N/A   Clear
2:53 AM 50.0 °F 30.0 °F 46% 29.58 in 10.0 mi WSW 11.5 mph - N/A   Clear
3:53 AM 51.1 °F 28.0 °F 41% 29.57 in 10.0 mi West 9.2 mph - N/A   Clear
4:53 AM 52.0 °F 26.1 °F 37% 29.57 in 10.0 mi WNW 13.8 mph - N/A   Clear
5:53 AM 53.1 °F 27.0 °F 37% 29.57 in 10.0 mi WNW 11.5 mph - N/A   Clear
6:53 AM 55.0 °F 27.0 °F 34% 29.61 in 10.0 mi WNW 11.5 mph - N/A   Clear
7:53 AM 57.9 °F 28.9 °F 33% 29.63 in 10.0 mi WNW 10.4 mph - N/A   Clear
8:53 AM 61.0 °F 33.1 °F 35% 29.64 in 10.0 mi WNW 9.2 mph - N/A   Clear
9:53 AM 66.0 °F 30.9 °F 27% 29.64 in 10.0 mi NW 15.0 mph - N/A   Clear
10:53 AM 70.0 °F 30.9 °F 24% 29.63 in 10.0 mi NNW 11.5 mph - N/A   Clear
11:53 AM 73.9 °F 28.0 °F 18% 29.61 in 10.0 mi NNW 12.7 mph 20.7 mph N/A   Clear
12:53 PM 75.9 °F 27.0 °F 16% 29.57 in 10.0 mi North 9.2 mph - N/A   Clear
1:53 PM 75.9 °F 25.0 °F 15% 29.56 in 10.0 mi WNW 6.9 mph - N/A   Clear
2:53 PM 75.9 °F 25.0 °F 15% 29.54 in 10.0 mi Variable 4.6 mph - N/A   Clear
3:53 PM 79.0 °F 25.0 °F 14% 29.50 in 10.0 mi East 8.1 mph - N/A   Clear
4:53 PM 75.9 °F 26.1 °F 16% 29.49 in 10.0 mi East 11.5 mph - N/A   Partly Cloudy
5:53 PM 73.9 °F 30.0 °F 20% 29.48 in 10.0 mi NE 15.0 mph - N/A   Clear
6:53 PM 69.1 °F 32.0 °F 25% 29.49 in 10.0 mi ENE 13.8 mph - N/A   Clear
7:53 PM 64.0 °F 32.0 °F 30% 29.50 in 10.0 mi ENE 17.3 mph 24.2 mph N/A   Clear
8:53 PM 63.0 °F 34.0 °F 34% 29.53 in 10.0 mi East 13.8 mph - N/A   Partly Cloudy
9:53 PM 59.0 °F 37.0 °F 44% 29.53 in 10.0 mi ENE 13.8 mph - N/A   Clear
10:53 PM 55.0 °F 36.0 °F 49% 29.53 in 10.0 mi ENE 10.4 mph - N/A   Clear
11:53 PM 55.9 °F 33.1 °F 42% 29.52 in 10.0 mi ENE 20.7 mph - N/A   Mostly Cloudy